| time (UTC) | temp F | wind direction | speed MPH | gust MPH | rain 1hr in | rain 24hr in | rain mn in | humidity % | barometer mb |
| 20260502163017 | 60 | 80 | 2.0 | 5.0 | 0.00 | 1.81 | 0.06 | 68 | 1012.9 |
| 20260502161513 | 58 | 39 | 1.0 | 4.0 | 0.00 | 1.81 | 0.06 | 76 | 1012.9 |
| 20260502151510 | 55 | 6 | 1.0 | 3.0 | 0.00 | 1.81 | 0.06 | 82 | 1013.0 |
| 20260502123045 | 53 | 289 | 1.0 | 3.0 | 0.00 | 1.75 | 0.00 | 79 | 1012.2 |
| 20260502121549 | 53 | 284 | 1.0 | 2.0 | 0.00 | 1.75 | 0.00 | 79 | 1012.2 |
| 20260502114543 | 53 | 288 | 0.0 | 0.0 | 0.00 | 1.75 | 0.00 | 79 | 1012.3 |
| 20260502113038 | 54 | 288 | 0.0 | 2.0 | 0.00 | 1.75 | 0.00 | 76 | 1012.3 |
| 20260502111536 | 55 | 275 | 1.0 | 3.0 | 0.00 | 1.75 | 0.00 | 75 | 1012.3 |
| 20260502110036 | 55 | 297 | 1.0 | 4.0 | 0.00 | 1.75 | 0.00 | 74 | 1012.3 |
| 20260502104543 | 56 | 40 | 0.0 | 0.0 | 0.00 | 1.75 | 0.00 | 73 | 1012.1 |
| 20260502103035 | 58 | 238 | 0.0 | 2.0 | 0.00 | 1.75 | 0.00 | 69 | 1012.1 |
| 20260502101532 | 58 | 160 | 0.0 | 2.0 | 0.00 | 1.75 | 0.00 | 68 | 1012.0 |
| 20260502091526 | 57 | 352 | 2.0 | 7.0 | 0.00 | 1.75 | 0.00 | 66 | 1011.9 |
| 20260502071517 | 57 | 251 | 0.0 | 2.0 | 0.00 | 1.75 | 0.00 | 66 | 1012.4 |
| 20260502070008 | 58 | 11 | 1.0 | 4.0 | 0.00 | 1.75 | 1.75 | 63 | 1012.5 |
| 20260502064511 | 59 | 298 | 0.0 | 1.0 | 0.00 | 1.75 | 1.75 | 61 | 1012.4 |
| 20260502063005 | 59 | 308 | 0.0 | 3.0 | 0.00 | 1.75 | 1.75 | 61 | 1012.7 |
| 20260502061506 | 57 | 274 | 3.0 | 5.0 | 0.00 | 1.75 | 1.75 | 63 | 1012.7 |
| 20260502060005 | 59 | 316 | 1.0 | 5.0 | 0.00 | 1.75 | 1.75 | 57 | 1012.2 |
| 20260502054512 | 59 | 326 | 3.0 | 5.0 | 0.00 | 1.75 | 1.75 | 56 | 1012.3 |
| 20260502053004 | 61 | 18 | 0.0 | 3.0 | 0.00 | 1.75 | 1.75 | 51 | 1012.5 |
| 20260502051504 | 60 | 299 | 0.0 | 2.0 | 0.00 | 1.75 | 1.75 | 52 | 1012.6 |
| 20260502050003 | 64 | 319 | 3.0 | 4.0 | 0.00 | 1.75 | 1.75 | 46 | 1012.3 |
| 20260502044502 | 63 | 342 | 1.0 | 2.0 | 0.00 | 1.75 | 1.75 | 47 | 1012.3 |
| 20260502043002 | 64 | 338 | 0.0 | 4.0 | 0.00 | 1.75 | 1.75 | 46 | 1012.3 |
| 20260502041502 | 64 | 23 | 1.0 | 3.0 | 0.00 | 1.75 | 1.75 | 44 | 1012.2 |
| 20260502040031 | 66 | 3 | 1.0 | 4.0 | 0.00 | 1.75 | 1.75 | 43 | 1012.2 |
| 20260502034600 | 67 | 17 | 3.0 | 7.0 | 0.00 | 1.75 | 1.75 | 41 | 1012.0 |
| 20260502033101 | 68 | 5 | 3.0 | 8.0 | 0.00 | 1.75 | 1.75 | 40 | 1011.8 |
| 20260502031612 | 68 | 8 | 4.0 | 8.0 | 0.00 | 1.75 | 1.75 | 39 | 1011.7 |
| 20260502030100 | 69 | 349 | 5.0 | 9.0 | 0.00 | 1.75 | 1.75 | 39 | 1011.7 |
| 20260502024559 | 69 | 357 | 3.0 | 6.0 | 0.00 | 1.75 | 1.75 | 38 | 1011.7 |
| 20260502023100 | 71 | 8 | 7.0 | 12.0 | 0.00 | 1.75 | 1.75 | 36 | 1011.4 |
| 20260502021559 | 71 | 26 | 7.0 | 12.0 | 0.00 | 1.75 | 1.75 | 35 | 1011.2 |
| 20260502020108 | 72 | 350 | 6.0 | 11.0 | 0.00 | 1.75 | 1.75 | 35 | 1011.0 |
| 20260502014556 | 73 | 29 | 10.0 | 15.0 | 0.00 | 1.75 | 1.75 | 33 | 1010.9 |
| 20260502013057 | 75 | 41 | 11.0 | 17.0 | 0.11 | 1.75 | 1.75 | 33 | 1010.8 |
| 20260502011555 | 76 | 23 | 10.0 | 15.0 | 0.17 | 1.75 | 1.75 | 32 | 1010.7 |
| 20260502010057 | 76 | 25 | 7.0 | 17.0 | 0.36 | 1.75 | 1.75 | 32 | 1010.7 |
| 20260502004553 | 77 | 28 | 11.0 | 19.0 | 0.46 | 1.75 | 1.75 | 31 | 1010.5 |
| 20260502003053 | 77 | 46 | 13.0 | 21.0 | 0.50 | 1.63 | 1.63 | 31 | 1010.6 |
| 20260502001551 | 78 | 57 | 8.0 | 18.0 | 0.74 | 1.58 | 1.58 | 32 | 1010.7 |
| 20260502000050 | 77 | 56 | 10.0 | 15.0 | 0.71 | 1.39 | 1.39 | 33 | 1010.7 |
| 20260501234555 | 78 | 63 | 9.0 | 17.0 | 0.61 | 1.29 | 1.29 | 31 | 1010.8 |
| 20260501233047 | 79 | 52 | 8.0 | 16.0 | 0.45 | 1.12 | 1.12 | 30 | 1011.0 |
| 20260501231556 | 80 | 51 | 8.0 | 13.0 | 0.10 | 0.78 | 0.78 | 27 | 1011.2 |
| 20260501230043 | 79 | 67 | 9.0 | 15.0 | 0.02 | 0.68 | 0.68 | 27 | 1011.5 |
| 20260501224540 | 79 | 56 | 8.0 | 14.0 | 0.03 | 0.68 | 0.68 | 29 | 1011.8 |
| 20260501223038 | 79 | 62 | 8.0 | 12.0 | 0.03 | 0.68 | 0.68 | 27 | 1012.0 |
| 20260501221536 | 79 | 55 | 5.0 | 11.0 | 0.36 | 0.68 | 0.68 | 28 | 1012.3 |
| 20260501220033 | 79 | 84 | 4.0 | 12.0 | 0.65 | 0.65 | 0.65 | 28 | 1012.7 |
| 20260501214544 | 78 | 55 | 5.0 | 11.0 | 0.65 | 0.65 | 0.65 | 28 | 1012.9 |
| 20260501213026 | 77 | 89 | 2.0 | 12.0 | 0.65 | 0.65 | 0.65 | 29 | 1013.1 |
| 20260501211524 | 77 | 23 | 5.0 | 9.0 | 0.28 | 0.28 | 0.28 | 28 | 1013.4 |
| 20260501210123 | 76 | 94 | 5.0 | 12.0 | 0.00 | 0.00 | 0.00 | 32 | 1013.6 |
| 20260501204517 | 75 | 25 | 2.0 | 7.0 | 0.00 | 0.00 | 0.00 | 30 | 1013.9 |
| 20260501203014 | 74 | 58 | 2.0 | 6.0 | 0.00 | 0.00 | 0.00 | 32 | 1014.1 |
| 20260501201512 | 74 | 319 | 1.0 | 8.0 | 0.00 | 0.00 | 0.00 | 30 | 1014.4 |
| 20260501200011 | 73 | 84 | 4.0 | 7.0 | 0.00 | 0.00 | 0.00 | 32 | 1014.6 |
| 20260501194506 | 71 | 44 | 4.0 | 10.0 | 0.00 | 0.00 | 0.00 | 34 | 1014.8 |
| 20260501193001 | 71 | 55 | 5.0 | 12.0 | 0.00 | 0.00 | 0.00 | 36 | 1015.0 |
| 20260501191604 | 70 | 78 | 0.0 | 11.0 | 0.00 | 0.00 | 0.00 | 36 | 1015.3 |
| 20260501190113 | 69 | 78 | 0.0 | 5.0 | 0.00 | 0.00 | 0.00 | 38 | 1015.5 |
| 20260501184552 | 69 | 46 | 2.0 | 7.0 | 0.00 | 0.00 | 0.00 | 37 | 1015.8 |
| 20260501183048 | 67 | 39 | 2.0 | 6.0 | 0.00 | 0.00 | 0.00 | 37 | 1015.9 |
| 20260501181546 | 67 | 82 | 0.0 | 5.0 | 0.00 | 0.00 | 0.00 | 37 | 1015.9 |
| 20260501180044 | 66 | 63 | 2.0 | 5.0 | 0.00 | 0.00 | 0.00 | 39 | 1016.1 |
| 20260501174541 | 65 | 60 | 2.0 | 5.0 | 0.00 | 0.00 | 0.00 | 42 | 1016.1 |
| 20260501173045 | 65 | 25 | 3.0 | 6.0 | 0.00 | 0.00 | 0.00 | 42 | 1016.4 |
| 20260501171549 | 64 | 53 | 1.0 | 5.0 | 0.00 | 0.00 | 0.00 | 45 | 1016.5 |